Time,TemperatureF,DewpointF,PressureIn,WindDirection,WindDirectionDegrees,WindSpeedMPH,WindSpeedGustMPH,Humidity,HourlyPrecipIn,Conditions,Clouds,dailyrainin,SolarRadiationWatts/m^2,SoftwareType,DateUTC
2013-04-22 00:03:00,57.9,54.9,30.03,SSE,166,0.0,3.0,90,0.00,,,0.00,0,HR-IXP-WINDi_r2_v1.2,2013-04-22 07:03:00,
2013-04-22 00:09:00,58.1,55.1,30.03,SSE,166,1.0,3.0,90,0.00,,,0.00,0,HR-IXP-WINDi_r2_v1.2,2013-04-22 07:09:00,
2013-04-22 00:14:00,58.3,55.3,30.03,SSE,166,0.0,3.0,90,0.00,,,0.00,0,HR-IXP-WINDi_r2_v1.2,2013-04-22 07:14:00,
2013-04-22 00:19:00,58.4,55.4,30.03,SSE,163,1.0,4.0,90,0.00,,,0.00,0,HR-IXP-WINDi_r2_v1.2,2013-04-22 07:19:00,
2013-04-22 00:24:00,58.4,55.4,30.03,SSE,158,1.0,4.0,90,0.00,,,0.00,0,HR-IXP-WINDi_r2_v1.2,2013-04-22 07:24:00,
2013-04-22 00:29:00,58.5,55.2,30.03,South,170,1.0,4.0,89,0.00,,,0.00,0,HR-IXP-WINDi_r2_v1.2,2013-04-22 07:29:00,
2013-04-22 00:34:00,58.4,55.1,30.03,SE,144,1.0,4.0,89,0.00,,,0.00,0,HR-IXP-WINDi_r2_v1.2,2013-04-22 07:34:00,
2013-04-22 00:39:00,58.4,55.1,30.03,SE,128,0.0,4.0,89,0.00,,,0.00,0,HR-IXP-WINDi_r2_v1.2,2013-04-22 07:39:00,
2013-04-22 00:44:00,58.4,55.4,30.03,SE,142,2.0,4.0,90,0.00,,,0.00,0,HR-IXP-WINDi_r2_v1.2,2013-04-22 07:44:00,
2013-04-22 00:50:00,58.3,55.3,30.03,SE,129,1.0,4.0,90,0.00,,,0.00,0,HR-IXP-WINDi_r2_v1.2,2013-04-22 07:50:00,
2013-04-22 00:55:00,58.3,55.3,30.03,ESE,108,1.0,4.0,90,0.00,,,0.00,0,HR-IXP-WINDi_r2_v1.2,2013-04-22 07:55:00,
2013-04-22 01:00:00,58.3,55.3,30.03,NE,38,0.0,3.0,90,0.00,,,0.00,0,HR-IXP-WINDi_r2_v1.2,2013-04-22 08:00:00,
2013-04-22 01:05:00,58.4,55.4,30.02,East,81,1.0,5.0,90,0.00,,,0.00,0,HR-IXP-WINDi_r2_v1.2,2013-04-22 08:05:00,
2013-04-22 01:10:00,58.4,55.4,30.02,East,82,2.0,5.0,90,0.00,,,0.00,0,HR-IXP-WINDi_r2_v1.2,2013-04-22 08:10:00,
2013-04-22 01:15:00,58.3,55.3,30.02,East,90,1.0,5.0,90,0.00,,,0.00,0,HR-IXP-WINDi_r2_v1.2,2013-04-22 08:15:00,
2013-04-22 01:20:00,58.3,55.3,30.02,East,95,1.0,3.0,90,0.00,,,0.00,0,HR-IXP-WINDi_r2_v1.2,2013-04-22 08:20:00,
2013-04-22 01:26:00,58.2,55.2,30.02,East,95,0.0,3.0,90,0.00,,,0.00,0,HR-IXP-WINDi_r2_v1.2,2013-04-22 08:26:00,
2013-04-22 01:31:00,58.3,55.3,30.02,ESE,113,2.0,3.0,90,0.00,,,0.00,0,HR-IXP-WINDi_r2_v1.2,2013-04-22 08:31:00,
2013-04-22 01:36:00,58.4,55.4,30.02,East,96,0.0,3.0,90,0.00,,,0.00,0,HR-IXP-WINDi_r2_v1.2,2013-04-22 08:36:00,
2013-04-22 01:41:00,58.4,55.4,30.02,ESE,103,1.0,3.0,90,0.00,,,0.00,0,HR-IXP-WINDi_r2_v1.2,2013-04-22 08:41:00,
2013-04-22 01:46:00,58.4,55.1,30.02,ESE,103,0.0,3.0,89,0.00,,,0.00,0,HR-IXP-WINDi_r2_v1.2,2013-04-22 08:46:00,
2013-04-22 01:51:00,58.5,55.2,30.01,SE,144,1.0,3.0,89,0.00,,,0.00,0,HR-IXP-WINDi_r2_v1.2,2013-04-22 08:51:00,
2013-04-22 01:56:00,58.5,55.2,30.01,SSE,154,0.0,3.0,89,0.00,,,0.00,0,HR-IXP-WINDi_r2_v1.2,2013-04-22 08:56:00,
2013-04-22 02:02:00,58.5,55.2,30.01,ESE,116,0.0,3.0,89,0.00,,,0.00,0,HR-IXP-WINDi_r2_v1.2,2013-04-22 09:02:00,
2013-04-22 02:07:00,58.5,55.2,30.01,ESE,116,0.0,2.0,89,0.00,,,0.00,0,HR-IXP-WINDi_r2_v1.2,2013-04-22 09:07:00,
2013-04-22 02:12:00,58.5,55.2,30.01,SE,129,1.0,3.0,89,0.00,,,0.00,0,HR-IXP-WINDi_r2_v1.2,2013-04-22 09:12:00,
2013-04-22 02:17:00,58.5,55.2,30.01,SE,140,3.0,4.0,89,0.00,,,0.00,0,HR-IXP-WINDi_r2_v1.2,2013-04-22 09:17:00,
2013-04-22 02:22:00,58.4,55.1,30.01,SE,128,0.0,4.0,89,0.00,,,0.00,0,HR-IXP-WINDi_r2_v1.2,2013-04-22 09:22:00,
2013-04-22 02:28:00,58.4,55.1,30.01,SE,128,0.0,4.0,89,0.00,,,0.00,0,HR-IXP-WINDi_r2_v1.2,2013-04-22 09:28:00,
2013-04-22 02:33:00,58.5,55.2,30.01,SE,128,0.0,3.0,89,0.00,,,0.00,0,HR-IXP-WINDi_r2_v1.2,2013-04-22 09:33:00,
2013-04-22 02:38:00,58.4,55.1,30.01,SE,134,2.0,4.0,89,0.00,,,0.00,0,HR-IXP-WINDi_r2_v1.2,2013-04-22 09:38:00,
2013-04-22 02:43:00,58.4,55.1,30.01,SSW,201,6.0,6.0,89,0.00,,,0.00,0,HR-IXP-WINDi_r2_v1.2,2013-04-22 09:43:00,
2013-04-22 02:48:00,58.4,55.1,30.01,SW,216,1.0,7.0,89,0.00,,,0.00,0,HR-IXP-WINDi_r2_v1.2,2013-04-22 09:48:00,
2013-04-22 02:54:00,58.3,54.7,30.01,SSW,198,2.0,4.0,88,0.00,,,0.00,0,HR-IXP-WINDi_r2_v1.2,2013-04-22 09:54:00,
2013-04-22 02:59:00,58.2,54.6,30.01,SSW,198,0.0,4.0,88,0.00,,,0.00,0,HR-IXP-WINDi_r2_v1.2,2013-04-22 09:59:00,
2013-04-22 03:04:00,58.3,54.7,30.01,SSE,165,1.0,3.0,88,0.00,,,0.00,0,HR-IXP-WINDi_r2_v1.2,2013-04-22 10:04:00,
2013-04-22 03:09:00,58.2,54.6,30.01,SSE,161,1.0,3.0,88,0.00,,,0.00,0,HR-IXP-WINDi_r2_v1.2,2013-04-22 10:09:00,
2013-04-22 03:14:00,58.1,54.5,30.00,SSE,161,0.0,3.0,88,0.00,,,0.00,0,HR-IXP-WINDi_r2_v1.2,2013-04-22 10:14:00,
2013-04-22 03:20:00,58.1,54.5,30.00,SSE,167,0.0,2.0,88,0.00,,,0.00,0,HR-IXP-WINDi_r2_v1.2,2013-04-22 10:20:00,
2013-04-22 03:25:00,58.1,54.5,30.01,SSW,199,3.0,3.0,88,0.00,,,0.00,0,HR-IXP-WINDi_r2_v1.2,2013-04-22 10:25:00,
2013-04-22 03:30:00,58.0,54.4,30.01,South,178,1.0,4.0,88,0.00,,,0.00,0,HR-IXP-WINDi_r2_v1.2,2013-04-22 10:30:00,
2013-04-22 03:35:00,58.0,54.4,30.01,South,175,0.0,4.0,88,0.00,,,0.00,0,HR-IXP-WINDi_r2_v1.2,2013-04-22 10:35:00,
2013-04-22 03:40:00,57.8,54.2,30.00,SSW,196,1.0,4.0,88,0.00,,,0.00,0,HR-IXP-WINDi_r2_v1.2,2013-04-22 10:40:00,
2013-04-22 03:45:00,57.9,54.3,30.00,SSW,196,0.0,4.0,88,0.00,,,0.00,0,HR-IXP-WINDi_r2_v1.2,2013-04-22 10:45:00,
2013-04-22 03:51:00,57.9,54.3,30.00,SSW,196,1.0,2.0,88,0.00,,,0.00,0,HR-IXP-WINDi_r2_v1.2,2013-04-22 10:51:00,
2013-04-22 03:56:00,57.9,54.3,30.00,SSW,192,0.0,2.0,88,0.00,,,0.00,0,HR-IXP-WINDi_r2_v1.2,2013-04-22 10:56:00,
2013-04-22 04:01:00,57.9,54.3,30.00,SE,143,2.0,4.0,88,0.00,,,0.00,0,HR-IXP-WINDi_r2_v1.2,2013-04-22 11:01:00,
2013-04-22 04:06:00,57.9,54.3,30.00,SE,138,1.0,4.0,88,0.00,,,0.00,0,HR-IXP-WINDi_r2_v1.2,2013-04-22 11:06:00,
2013-04-22 04:11:00,57.9,54.0,30.00,SSE,154,3.0,4.0,87,0.00,,,0.00,0,HR-IXP-WINDi_r2_v1.2,2013-04-22 11:11:00,
2013-04-22 04:17:00,57.8,53.9,30.00,SSE,149,2.0,4.0,87,0.00,,,0.00,0,HR-IXP-WINDi_r2_v1.2,2013-04-22 11:17:00,
2013-04-22 04:22:00,57.8,53.9,30.00,SE,140,0.0,4.0,87,0.00,,,0.00,0,HR-IXP-WINDi_r2_v1.2,2013-04-22 11:22:00,
2013-04-22 04:27:00,57.9,53.7,30.00,SE,136,2.0,3.0,86,0.00,,,0.00,0,HR-IXP-WINDi_r2_v1.2,2013-04-22 11:27:00,
2013-04-22 04:33:00,57.9,53.7,30.00,ESE,108,3.0,4.0,86,0.00,,,0.00,0,HR-IXP-WINDi_r2_v1.2,2013-04-22 11:33:00,
2013-04-22 04:38:00,58.0,53.8,30.00,ESE,108,1.0,4.0,86,0.00,,,0.00,0,HR-IXP-WINDi_r2_v1.2,2013-04-22 11:38:00,
2013-04-22 04:43:00,57.9,53.7,30.00,SSE,167,2.0,5.0,86,0.00,,,0.00,0,HR-IXP-WINDi_r2_v1.2,2013-04-22 11:43:00,
2013-04-22 04:48:00,57.7,53.5,30.00,SE,142,3.0,6.0,86,0.00,,,0.00,0,HR-IXP-WINDi_r2_v1.2,2013-04-22 11:48:00,
2013-04-22 04:53:00,57.6,53.1,30.00,SE,135,1.0,6.0,85,0.00,,,0.00,0,HR-IXP-WINDi_r2_v1.2,2013-04-22 11:53:00,
2013-04-22 04:59:00,57.6,53.4,30.00,SE,134,2.0,5.0,86,0.00,,,0.00,0,HR-IXP-WINDi_r2_v1.2,2013-04-22 11:59:00,
2013-04-22 05:04:00,57.6,53.1,30.00,SE,128,1.0,5.0,85,0.00,,,0.00,0,HR-IXP-WINDi_r2_v1.2,2013-04-22 12:04:00,
2013-04-22 05:09:00,57.6,53.1,30.00,SE,137,0.0,3.0,85,0.00,,,0.00,0,HR-IXP-WINDi_r2_v1.2,2013-04-22 12:09:00,
2013-04-22 05:14:00,57.6,53.1,30.00,South,171,0.0,3.0,85,0.00,,,0.00,0,HR-IXP-WINDi_r2_v1.2,2013-04-22 12:14:00,
2013-04-22 05:19:00,57.6,53.1,30.00,SSW,201,1.0,4.0,85,0.00,,,0.00,0,HR-IXP-WINDi_r2_v1.2,2013-04-22 12:19:00,
2013-04-22 05:24:00,57.7,53.2,30.00,SSW,201,0.0,4.0,85,0.00,,,0.00,0,HR-IXP-WINDi_r2_v1.2,2013-04-22 12:24:00,
2013-04-22 05:29:00,57.8,53.3,29.99,SSW,201,1.0,3.0,85,0.00,,,0.00,0,HR-IXP-WINDi_r2_v1.2,2013-04-22 12:29:00,
2013-04-22 05:35:00,57.7,53.2,29.99,SSE,152,1.0,3.0,85,0.00,,,0.00,0,HR-IXP-WINDi_r2_v1.2,2013-04-22 12:35:00,
2013-04-22 05:40:00,57.7,53.2,29.99,SSE,154,1.0,3.0,85,0.00,,,0.00,0,HR-IXP-WINDi_r2_v1.2,2013-04-22 12:40:00,
2013-04-22 05:45:00,57.8,53.3,29.99,SSE,151,1.0,4.0,85,0.00,,,0.00,0,HR-IXP-WINDi_r2_v1.2,2013-04-22 12:45:00,
2013-04-22 05:50:00,57.7,53.2,29.99,SSE,155,0.0,4.0,85,0.00,,,0.00,0,HR-IXP-WINDi_r2_v1.2,2013-04-22 12:50:00,
2013-04-22 05:56:00,57.6,53.1,30.00,SSE,155,0.0,4.0,85,0.00,,,0.00,0,HR-IXP-WINDi_r2_v1.2,2013-04-22 12:56:00,
2013-04-22 06:01:00,57.6,53.4,30.00,SSE,152,2.0,3.0,86,0.00,,,0.00,0,HR-IXP-WINDi_r2_v1.2,2013-04-22 13:01:00,
2013-04-22 06:06:00,57.6,53.4,30.00,SSE,152,0.0,3.0,86,0.00,,,0.00,0,HR-IXP-WINDi_r2_v1.2,2013-04-22 13:06:00,
2013-04-22 06:11:00,57.7,53.5,30.00,SSE,151,3.0,3.0,86,0.00,,,0.00,0,HR-IXP-WINDi_r2_v1.2,2013-04-22 13:11:00,
2013-04-22 06:16:00,57.7,53.2,30.00,ESE,116,3.0,6.0,85,0.00,,,0.00,0,HR-IXP-WINDi_r2_v1.2,2013-04-22 13:16:00,
2013-04-22 06:22:00,57.6,53.1,30.00,South,191,1.0,6.0,85,0.00,,,0.00,0,HR-IXP-WINDi_r2_v1.2,2013-04-22 13:22:00,
2013-04-22 06:27:00,57.7,53.2,30.01,SSE,168,2.0,3.0,85,0.00,,,0.00,5,HR-IXP-WINDi_r2_v1.2,2013-04-22 13:27:00,
2013-04-22 06:32:00,57.7,53.2,30.01,ESE,115,0.0,3.0,85,0.00,,,0.00,7,HR-IXP-WINDi_r2_v1.2,2013-04-22 13:32:00,
2013-04-22 06:37:00,57.8,53.3,30.01,ESE,115,0.0,3.0,85,0.00,,,0.00,11,HR-IXP-WINDi_r2_v1.2,2013-04-22 13:37:00,
2013-04-22 06:43:00,57.9,53.4,30.01,ESE,117,2.0,4.0,85,0.00,,,0.00,12,HR-IXP-WINDi_r2_v1.2,2013-04-22 13:43:00,
2013-04-22 06:48:00,57.8,53.3,30.01,ESE,107,0.0,4.0,85,0.00,,,0.00,18,HR-IXP-WINDi_r2_v1.2,2013-04-22 13:48:00,
2013-04-22 06:53:00,57.8,53.3,30.01,SE,140,2.0,4.0,85,0.00,,,0.00,25,HR-IXP-WINDi_r2_v1.2,2013-04-22 13:53:00,
2013-04-22 06:58:00,57.8,52.9,30.01,SE,140,0.0,4.0,84,0.00,,,0.00,28,HR-IXP-WINDi_r2_v1.2,2013-04-22 13:58:00,
2013-04-22 07:04:00,57.9,53.0,30.01,SE,140,0.0,3.0,84,0.00,,,0.00,32,HR-IXP-WINDi_r2_v1.2,2013-04-22 14:04:00,
2013-04-22 07:09:00,57.9,53.0,30.02,SE,140,0.0,2.0,84,0.00,,,0.00,35,HR-IXP-WINDi_r2_v1.2,2013-04-22 14:09:00,
2013-04-22 07:14:00,57.9,53.0,30.02,SE,140,1.0,2.0,84,0.00,,,0.00,39,HR-IXP-WINDi_r2_v1.2,2013-04-22 14:14:00,
2013-04-22 07:19:00,58.2,53.3,30.02,SE,140,0.0,1.0,84,0.00,,,0.00,42,HR-IXP-WINDi_r2_v1.2,2013-04-22 14:19:00,
2013-04-22 07:24:00,58.4,53.2,30.02,ESE,108,1.0,3.0,83,0.00,,,0.00,51,HR-IXP-WINDi_r2_v1.2,2013-04-22 14:24:00,
2013-04-22 07:29:00,58.6,53.4,30.02,ESE,108,0.0,3.0,83,0.00,,,0.00,58,HR-IXP-WINDi_r2_v1.2,2013-04-22 14:29:00,
2013-04-22 07:34:00,58.7,53.5,30.02,SE,137,4.0,5.0,83,0.00,,,0.00,70,HR-IXP-WINDi_r2_v1.2,2013-04-22 14:34:00,
2013-04-22 07:40:00,58.7,53.5,30.02,SE,129,3.0,5.0,83,0.00,,,0.00,90,HR-IXP-WINDi_r2_v1.2,2013-04-22 14:40:00,
2013-04-22 07:45:00,58.8,53.6,30.03,SE,136,2.0,4.0,83,0.00,,,0.00,109,HR-IXP-WINDi_r2_v1.2,2013-04-22 14:45:00,
2013-04-22 07:50:00,59.1,53.5,30.03,ESE,107,2.0,4.0,82,0.00,,,0.00,111,HR-IXP-WINDi_r2_v1.2,2013-04-22 14:50:00,
2013-04-22 07:55:00,59.3,53.7,30.03,East,101,2.0,4.0,82,0.00,,,0.00,139,HR-IXP-WINDi_r2_v1.2,2013-04-22 14:55:00,
2013-04-22 08:01:00,59.9,54.0,30.03,East,84,1.0,5.0,81,0.00,,,0.00,179,HR-IXP-WINDi_r2_v1.2,2013-04-22 15:01:00,
2013-04-22 08:06:00,60.0,54.1,30.03,NE,51,2.0,5.0,81,0.00,,,0.00,156,HR-IXP-WINDi_r2_v1.2,2013-04-22 15:06:00,
2013-04-22 08:11:00,60.5,54.2,30.03,NE,42,1.0,4.0,80,0.00,,,0.00,186,HR-IXP-WINDi_r2_v1.2,2013-04-22 15:11:00,
2013-04-22 08:17:00,60.9,54.3,30.03,East,99,2.0,4.0,79,0.00,,,0.00,320,HR-IXP-WINDi_r2_v1.2,2013-04-22 15:17:00,
2013-04-22 08:22:00,62.4,54.7,30.03,East,92,3.0,6.0,76,0.00,,,0.00,406,HR-IXP-WINDi_r2_v1.2,2013-04-22 15:22:00,
2013-04-22 08:27:00,62.4,53.9,30.03,ESE,104,2.0,6.0,74,0.00,,,0.00,471,HR-IXP-WINDi_r2_v1.2,2013-04-22 15:27:00,
2013-04-22 08:32:00,62.6,54.5,30.03,ESE,117,1.0,5.0,75,0.00,,,0.00,392,HR-IXP-WINDi_r2_v1.2,2013-04-22 15:32:00,
2013-04-22 08:38:00,62.5,54.0,30.02,SE,135,3.0,5.0,74,0.00,,,0.00,410,HR-IXP-WINDi_r2_v1.2,2013-04-22 15:38:00,
2013-04-22 08:43:00,63.8,54.5,30.02,East,90,2.0,5.0,72,0.00,,,0.00,422,HR-IXP-WINDi_r2_v1.2,2013-04-22 15:43:00,
2013-04-22 08:48:00,64.0,54.7,30.03,East,88,1.0,5.0,72,0.00,,,0.00,441,HR-IXP-WINDi_r2_v1.2,2013-04-22 15:48:00,
2013-04-22 08:53:00,64.8,54.3,30.03,ESE,102,2.0,6.0,69,0.00,,,0.00,454,HR-IXP-WINDi_r2_v1.2,2013-04-22 15:53:00,
2013-04-22 08:59:00,64.2,54.2,30.03,ESE,103,2.0,6.0,70,0.00,,,0.00,469,HR-IXP-WINDi_r2_v1.2,2013-04-22 15:59:00,
2013-04-22 09:04:00,64.8,53.9,30.02,ESE,103,2.0,5.0,68,0.00,,,0.00,485,HR-IXP-WINDi_r2_v1.2,2013-04-22 16:04:00,
2013-04-22 09:09:00,65.3,54.4,30.02,East,89,3.0,5.0,68,0.00,,,0.00,499,HR-IXP-WINDi_r2_v1.2,2013-04-22 16:09:00,
2013-04-22 09:14:00,64.9,54.4,30.02,East,85,0.0,5.0,69,0.00,,,0.00,504,HR-IXP-WINDi_r2_v1.2,2013-04-22 16:14:00,
2013-04-22 09:19:00,64.8,54.7,30.02,ENE,57,2.0,5.0,70,0.00,,,0.00,527,HR-IXP-WINDi_r2_v1.2,2013-04-22 16:19:00,
2013-04-22 09:24:00,66.5,55.1,30.02,ENE,63,1.0,4.0,67,0.00,,,0.00,533,HR-IXP-WINDi_r2_v1.2,2013-04-22 16:24:00,
2013-04-22 09:29:00,65.2,54.3,30.02,NNE,29,0.0,5.0,68,0.00,,,0.00,540,HR-IXP-WINDi_r2_v1.2,2013-04-22 16:29:00,
2013-04-22 09:34:00,65.4,54.1,30.02,SE,127,2.0,5.0,67,0.00,,,0.00,568,HR-IXP-WINDi_r2_v1.2,2013-04-22 16:34:00,
2013-04-22 09:39:00,64.8,53.9,30.03,SSW,200,3.0,6.0,68,0.00,,,0.00,566,HR-IXP-WINDi_r2_v1.2,2013-04-22 16:39:00,
2013-04-22 09:44:00,64.1,54.1,30.02,South,169,1.0,6.0,70,0.00,,,0.00,578,HR-IXP-WINDi_r2_v1.2,2013-04-22 16:44:00,
2013-04-22 09:50:00,65.3,54.8,30.02,SSE,158,0.0,6.0,69,0.00,,,0.00,608,HR-IXP-WINDi_r2_v1.2,2013-04-22 16:50:00,
2013-04-22 09:55:00,66.4,55.1,30.02,SSE,159,2.0,5.0,67,0.00,,,0.00,608,HR-IXP-WINDi_r2_v1.2,2013-04-22 16:55:00,
2013-04-22 10:00:00,63.8,52.6,30.02,WNW,286,2.0,6.0,67,0.00,,,0.00,626,HR-IXP-WINDi_r2_v1.2,2013-04-22 17:00:00,
2013-04-22 10:05:00,63.4,53.8,30.02,WSW,247,1.0,6.0,71,0.00,,,0.00,643,HR-IXP-WINDi_r2_v1.2,2013-04-22 17:05:00,
2013-04-22 10:10:00,65.4,54.1,30.02,South,190,1.0,6.0,67,0.00,,,0.00,652,HR-IXP-WINDi_r2_v1.2,2013-04-22 17:10:00,
2013-04-22 10:16:00,67.8,55.5,30.02,ESE,121,1.0,5.0,65,0.00,,,0.00,670,HR-IXP-WINDi_r2_v1.2,2013-04-22 17:16:00,
2013-04-22 10:21:00,68.1,55.0,30.02,ESE,120,2.0,6.0,63,0.00,,,0.00,684,HR-IXP-WINDi_r2_v1.2,2013-04-22 17:21:00,
2013-04-22 10:26:00,67.7,54.2,30.02,South,186,2.0,6.0,62,0.00,,,0.00,694,HR-IXP-WINDi_r2_v1.2,2013-04-22 17:26:00,
2013-04-22 10:31:00,67.0,55.6,30.02,SW,236,2.0,5.0,67,0.00,,,0.00,707,HR-IXP-WINDi_r2_v1.2,2013-04-22 17:31:00,
2013-04-22 10:36:00,66.1,55.6,30.02,WSW,245,3.0,6.0,69,0.00,,,0.00,717,HR-IXP-WINDi_r2_v1.2,2013-04-22 17:36:00,
2013-04-22 10:41:00,65.3,55.2,30.02,SW,214,2.0,7.0,70,0.00,,,0.00,728,HR-IXP-WINDi_r2_v1.2,2013-04-22 17:41:00,
2013-04-22 10:46:00,65.8,54.9,30.02,SW,225,1.0,9.0,68,0.00,,,0.00,735,HR-IXP-WINDi_r2_v1.2,2013-04-22 17:46:00,
2013-04-22 10:52:00,65.3,55.2,30.02,WSW,246,4.0,9.0,70,0.00,,,0.00,751,HR-IXP-WINDi_r2_v1.2,2013-04-22 17:52:00,
2013-04-22 10:57:00,66.2,56.1,30.02,SW,217,6.0,7.0,70,0.00,,,0.00,759,HR-IXP-WINDi_r2_v1.2,2013-04-22 17:57:00,
2013-04-22 11:02:00,65.8,55.3,30.02,SSW,209,7.0,9.0,69,0.00,,,0.00,765,HR-IXP-WINDi_r2_v1.2,2013-04-22 18:02:00,
2013-04-22 11:07:00,65.6,55.9,30.02,West,261,3.0,9.0,71,0.00,,,0.00,777,HR-IXP-WINDi_r2_v1.2,2013-04-22 18:07:00,
2013-04-22 11:13:00,66.1,55.6,30.02,SW,230,4.0,8.0,69,0.00,,,0.00,788,HR-IXP-WINDi_r2_v1.2,2013-04-22 18:13:00,
2013-04-22 11:18:00,65.9,55.4,30.02,SW,219,0.0,8.0,69,0.00,,,0.00,795,HR-IXP-WINDi_r2_v1.2,2013-04-22 18:18:00,
2013-04-22 11:23:00,66.7,55.7,30.01,SW,223,5.0,7.0,68,0.00,,,0.00,800,HR-IXP-WINDi_r2_v1.2,2013-04-22 18:23:00,
2013-04-22 11:28:00,65.6,55.9,30.01,West,264,4.0,7.0,71,0.00,,,0.00,809,HR-IXP-WINDi_r2_v1.2,2013-04-22 18:28:00,
2013-04-22 11:35:00,66.3,55.8,30.01,WSW,242,4.0,8.0,69,0.00,,,0.00,821,HR-IXP-WINDi_r2_v1.2,2013-04-22 18:35:00,
2013-04-22 11:40:00,66.5,56.0,30.01,SSW,213,6.0,8.0,69,0.00,,,0.00,830,HR-IXP-WINDi_r2_v1.2,2013-04-22 18:40:00,
2013-04-22 11:45:00,66.8,56.2,30.01,SSE,153,1.0,7.0,69,0.00,,,0.00,838,HR-IXP-WINDi_r2_v1.2,2013-04-22 18:45:00,
2013-04-22 11:50:00,67.5,55.7,30.01,WSW,252,3.0,6.0,66,0.00,,,0.00,842,HR-IXP-WINDi_r2_v1.2,2013-04-22 18:50:00,
2013-04-22 11:55:00,68.0,56.6,30.00,SSW,199,3.0,7.0,67,0.00,,,0.00,847,HR-IXP-WINDi_r2_v1.2,2013-04-22 18:55:00,
2013-04-22 12:01:00,67.8,56.0,30.00,SSE,160,2.0,8.0,66,0.00,,,0.00,849,HR-IXP-WINDi_r2_v1.2,2013-04-22 19:01:00,
2013-04-22 12:06:00,67.7,55.5,30.00,South,170,4.0,8.0,65,0.00,,,0.00,858,HR-IXP-WINDi_r2_v1.2,2013-04-22 19:06:00,
2013-04-22 12:11:00,67.9,54.8,30.00,SW,236,1.0,8.0,63,0.00,,,0.00,863,HR-IXP-WINDi_r2_v1.2,2013-04-22 19:11:00,
2013-04-22 12:16:00,67.8,56.0,29.99,WSW,242,3.0,8.0,66,0.00,,,0.00,865,HR-IXP-WINDi_r2_v1.2,2013-04-22 19:16:00,
2013-04-22 12:21:00,67.6,55.8,29.99,SSW,202,5.0,8.0,66,0.00,,,0.00,872,HR-IXP-WINDi_r2_v1.2,2013-04-22 19:21:00,
2013-04-22 12:26:00,68.5,56.2,29.99,South,188,5.0,7.0,65,0.00,,,0.00,874,HR-IXP-WINDi_r2_v1.2,2013-04-22 19:26:00,
2013-04-22 12:31:00,67.8,55.5,29.99,WSW,240,1.0,7.0,65,0.00,,,0.00,877,HR-IXP-WINDi_r2_v1.2,2013-04-22 19:31:00,
2013-04-22 12:37:00,67.7,56.3,29.98,SSE,163,4.0,7.0,67,0.00,,,0.00,882,HR-IXP-WINDi_r2_v1.2,2013-04-22 19:37:00,
2013-04-22 12:42:00,68.2,55.5,29.98,SSE,163,4.0,7.0,64,0.00,,,0.00,884,HR-IXP-WINDi_r2_v1.2,2013-04-22 19:42:00,
2013-04-22 12:47:00,67.4,55.2,29.98,WSW,245,3.0,7.0,65,0.00,,,0.00,879,HR-IXP-WINDi_r2_v1.2,2013-04-22 19:47:00,
2013-04-22 12:52:00,67.6,55.8,29.98,SSW,198,3.0,7.0,66,0.00,,,0.00,882,HR-IXP-WINDi_r2_v1.2,2013-04-22 19:52:00,
2013-04-22 12:57:00,67.3,55.5,29.98,WSW,248,5.0,7.0,66,0.00,,,0.00,884,HR-IXP-WINDi_r2_v1.2,2013-04-22 19:57:00,
2013-04-22 13:02:00,68.0,56.2,29.98,South,183,7.0,8.0,66,0.00,,,0.00,886,HR-IXP-WINDi_r2_v1.2,2013-04-22 20:02:00,
2013-04-22 13:08:00,67.7,55.5,29.97,West,277,5.0,8.0,65,0.00,,,0.00,881,HR-IXP-WINDi_r2_v1.2,2013-04-22 20:08:00,
2013-04-22 13:13:00,68.4,55.7,29.97,SSW,207,5.0,9.0,64,0.00,,,0.00,884,HR-IXP-WINDi_r2_v1.2,2013-04-22 20:13:00,
2013-04-22 13:18:00,68.1,55.4,29.97,SSW,196,7.0,10.0,64,0.00,,,0.00,881,HR-IXP-WINDi_r2_v1.2,2013-04-22 20:18:00,
2013-04-22 13:23:00,67.8,56.0,29.97,SSW,204,7.0,10.0,66,0.00,,,0.00,872,HR-IXP-WINDi_r2_v1.2,2013-04-22 20:23:00,
2013-04-22 13:29:00,68.1,55.4,29.97,SW,233,3.0,10.0,64,0.00,,,0.00,858,HR-IXP-WINDi_r2_v1.2,2013-04-22 20:29:00,
2013-04-22 13:34:00,68.3,55.6,29.97,SW,235,5.0,9.0,64,0.00,,,0.00,863,HR-IXP-WINDi_r2_v1.2,2013-04-22 20:34:00,
2013-04-22 13:39:00,67.5,55.3,29.97,SW,234,8.0,10.0,65,0.00,,,0.00,853,HR-IXP-WINDi_r2_v1.2,2013-04-22 20:39:00,
2013-04-22 13:44:00,67.3,55.5,29.96,West,273,1.0,10.0,66,0.00,,,0.00,842,HR-IXP-WINDi_r2_v1.2,2013-04-22 20:44:00,
2013-04-22 13:49:00,67.4,55.2,29.96,SW,216,4.0,8.0,65,0.00,,,0.00,846,HR-IXP-WINDi_r2_v1.2,2013-04-22 20:49:00,
2013-04-22 13:54:00,68.2,55.1,29.96,SW,218,3.0,10.0,63,0.00,,,0.00,833,HR-IXP-WINDi_r2_v1.2,2013-04-22 20:54:00,
2013-04-22 14:00:00,67.9,55.2,29.96,SSW,192,6.0,10.0,64,0.00,,,0.00,840,HR-IXP-WINDi_r2_v1.2,2013-04-22 21:00:00,
2013-04-22 14:05:00,67.8,55.5,29.96,South,191,3.0,10.0,65,0.00,,,0.00,833,HR-IXP-WINDi_r2_v1.2,2013-04-22 21:05:00,
2013-04-22 14:10:00,67.9,55.2,29.96,SSW,211,7.0,10.0,64,0.00,,,0.00,830,HR-IXP-WINDi_r2_v1.2,2013-04-22 21:10:00,
2013-04-22 14:15:00,68.0,54.9,29.96,SW,219,9.0,11.0,63,0.00,,,0.00,838,HR-IXP-WINDi_r2_v1.2,2013-04-22 21:15:00,
2013-04-22 14:20:00,68.0,55.3,29.96,South,182,4.0,11.0,64,0.00,,,0.00,800,HR-IXP-WINDi_r2_v1.2,2013-04-22 21:20:00,
2013-04-22 14:25:00,67.0,55.2,29.96,SSW,198,7.0,12.0,66,0.00,,,0.00,795,HR-IXP-WINDi_r2_v1.2,2013-04-22 21:25:00,
2013-04-22 14:31:00,66.7,55.3,29.96,South,190,4.0,12.0,67,0.00,,,0.00,800,HR-IXP-WINDi_r2_v1.2,2013-04-22 21:31:00,
2013-04-22 14:36:00,66.6,55.2,29.95,SW,221,4.0,11.0,67,0.00,,,0.00,807,HR-IXP-WINDi_r2_v1.2,2013-04-22 21:36:00,
2013-04-22 14:41:00,66.9,55.5,29.95,SSW,206,7.0,10.0,67,0.00,,,0.00,770,HR-IXP-WINDi_r2_v1.2,2013-04-22 21:41:00,
2013-04-22 14:46:00,66.3,55.4,29.95,SW,222,5.0,12.0,68,0.00,,,0.00,789,HR-IXP-WINDi_r2_v1.2,2013-04-22 21:46:00,
2013-04-22 14:51:00,67.1,55.7,29.94,SSE,156,6.0,12.0,67,0.00,,,0.00,745,HR-IXP-WINDi_r2_v1.2,2013-04-22 21:51:00,
2013-04-22 14:56:00,66.6,55.2,29.95,SSW,205,10.0,13.0,67,0.00,,,0.00,749,HR-IXP-WINDi_r2_v1.2,2013-04-22 21:56:00,
2013-04-22 15:02:00,66.1,55.2,29.94,South,174,4.0,13.0,68,0.00,,,0.00,765,HR-IXP-WINDi_r2_v1.2,2013-04-22 22:02:00,
2013-04-22 15:07:00,66.7,55.3,29.94,SW,215,4.0,13.0,67,0.00,,,0.00,707,HR-IXP-WINDi_r2_v1.2,2013-04-22 22:07:00,
2013-04-22 15:12:00,66.4,55.5,29.94,SW,227,3.0,12.0,68,0.00,,,0.00,737,HR-IXP-WINDi_r2_v1.2,2013-04-22 22:12:00,
2013-04-22 15:17:00,66.8,55.4,29.94,SSW,209,7.0,11.0,67,0.00,,,0.00,728,HR-IXP-WINDi_r2_v1.2,2013-04-22 22:17:00,
2013-04-22 15:22:00,67.0,55.6,29.94,SSE,157,3.0,11.0,67,0.00,,,0.00,710,HR-IXP-WINDi_r2_v1.2,2013-04-22 22:22:00,
2013-04-22 15:28:00,66.5,55.6,29.93,SSW,208,11.0,11.0,68,0.00,,,0.00,679,HR-IXP-WINDi_r2_v1.2,2013-04-22 22:28:00,
2013-04-22 15:33:00,67.2,55.8,29.93,SSW,208,7.0,11.0,67,0.00,,,0.00,652,HR-IXP-WINDi_r2_v1.2,2013-04-22 22:33:00,
2013-04-22 15:38:00,66.3,55.4,29.93,SW,214,7.0,11.0,68,0.00,,,0.00,570,HR-IXP-WINDi_r2_v1.2,2013-04-22 22:38:00,
2013-04-22 15:43:00,66.2,55.7,29.93,SSW,198,6.0,11.0,69,0.00,,,0.00,454,HR-IXP-WINDi_r2_v1.2,2013-04-22 22:43:00,
2013-04-22 15:48:00,66.0,55.1,29.93,SW,219,4.0,10.0,68,0.00,,,0.00,469,HR-IXP-WINDi_r2_v1.2,2013-04-22 22:48:00,
2013-04-22 15:53:00,66.0,55.5,29.93,SSE,165,5.0,10.0,69,0.00,,,0.00,492,HR-IXP-WINDi_r2_v1.2,2013-04-22 22:53:00,
2013-04-22 15:58:00,66.2,55.3,29.93,SSW,192,10.0,12.0,68,0.00,,,0.00,520,HR-IXP-WINDi_r2_v1.2,2013-04-22 22:58:00,
2013-04-22 16:04:00,65.9,55.4,29.93,SW,215,4.0,12.0,69,0.00,,,0.00,540,HR-IXP-WINDi_r2_v1.2,2013-04-22 23:04:00,
2013-04-22 16:09:00,65.5,55.4,29.92,South,188,3.0,13.0,70,0.00,,,0.00,559,HR-IXP-WINDi_r2_v1.2,2013-04-22 23:09:00,
2013-04-22 16:14:00,65.2,55.1,29.92,SW,235,9.0,13.0,70,0.00,,,0.00,564,HR-IXP-WINDi_r2_v1.2,2013-04-22 23:14:00,
2013-04-22 16:19:00,65.5,55.8,29.93,SW,217,7.0,13.0,71,0.00,,,0.00,555,HR-IXP-WINDi_r2_v1.2,2013-04-22 23:19:00,
2013-04-22 16:24:00,64.9,55.6,29.93,SSE,168,3.0,13.0,72,0.00,,,0.00,536,HR-IXP-WINDi_r2_v1.2,2013-04-22 23:24:00,
2013-04-22 16:29:00,65.2,55.5,29.92,SW,234,5.0,12.0,71,0.00,,,0.00,522,HR-IXP-WINDi_r2_v1.2,2013-04-22 23:29:00,
2013-04-22 16:34:00,65.2,55.5,29.93,SW,230,10.0,13.0,71,0.00,,,0.00,506,HR-IXP-WINDi_r2_v1.2,2013-04-22 23:34:00,
2013-04-22 16:40:00,65.7,56.0,29.92,South,186,6.0,13.0,71,0.00,,,0.00,492,HR-IXP-WINDi_r2_v1.2,2013-04-22 23:40:00,
2013-04-22 16:45:00,65.6,55.9,29.92,SSW,212,9.0,13.0,71,0.00,,,0.00,478,HR-IXP-WINDi_r2_v1.2,2013-04-22 23:45:00,
2013-04-22 16:50:00,64.7,55.4,29.92,South,181,9.0,12.0,72,0.00,,,0.00,461,HR-IXP-WINDi_r2_v1.2,2013-04-22 23:50:00,
2013-04-22 16:55:00,64.8,55.9,29.92,SSE,148,8.0,12.0,73,0.00,,,0.00,445,HR-IXP-WINDi_r2_v1.2,2013-04-22 23:55:00,
2013-04-22 17:00:00,64.6,54.9,29.92,SW,221,9.0,12.0,71,0.00,,,0.00,425,HR-IXP-WINDi_r2_v1.2,2013-04-23 00:00:00,
2013-04-22 17:06:00,64.9,55.6,29.92,WSW,246,4.0,11.0,72,0.00,,,0.00,322,HR-IXP-WINDi_r2_v1.2,2013-04-23 00:06:00,
2013-04-22 17:11:00,64.6,55.3,29.92,WSW,240,4.0,12.0,72,0.00,,,0.00,396,HR-IXP-WINDi_r2_v1.2,2013-04-23 00:11:00,
2013-04-22 17:16:00,65.0,56.1,29.92,South,172,4.0,12.0,73,0.00,,,0.00,378,HR-IXP-WINDi_r2_v1.2,2013-04-23 00:16:00,
2013-04-22 17:21:00,64.9,55.2,29.92,WSW,252,4.0,13.0,71,0.00,,,0.00,362,HR-IXP-WINDi_r2_v1.2,2013-04-23 00:21:00,
2013-04-22 17:26:00,64.4,55.5,29.93,SW,220,8.0,13.0,73,0.00,,,0.00,345,HR-IXP-WINDi_r2_v1.2,2013-04-23 00:26:00,
2013-04-22 17:31:00,64.6,55.3,29.93,SSE,166,5.0,13.0,72,0.00,,,0.00,323,HR-IXP-WINDi_r2_v1.2,2013-04-23 00:31:00,
2013-04-22 17:36:00,64.3,55.4,29.92,SSW,207,8.0,10.0,73,0.00,,,0.00,306,HR-IXP-WINDi_r2_v1.2,2013-04-23 00:36:00,
2013-04-22 17:42:00,63.6,55.5,29.92,SW,216,3.0,11.0,75,0.00,,,0.00,292,HR-IXP-WINDi_r2_v1.2,2013-04-23 00:42:00,
2013-04-22 17:47:00,64.4,55.9,29.92,SW,224,5.0,11.0,74,0.00,,,0.00,276,HR-IXP-WINDi_r2_v1.2,2013-04-23 00:47:00,
2013-04-22 17:52:00,63.6,55.5,29.92,South,178,5.0,13.0,75,0.00,,,0.00,255,HR-IXP-WINDi_r2_v1.2,2013-04-23 00:52:00,
2013-04-22 17:57:00,63.9,55.8,29.92,SSE,168,4.0,13.0,75,0.00,,,0.00,234,HR-IXP-WINDi_r2_v1.2,2013-04-23 00:57:00,
2013-04-22 18:03:00,63.3,55.2,29.93,South,183,5.0,11.0,75,0.00,,,0.00,223,HR-IXP-WINDi_r2_v1.2,2013-04-23 01:03:00,
2013-04-22 18:08:00,62.7,55.0,29.93,SW,217,4.0,13.0,76,0.00,,,0.00,200,HR-IXP-WINDi_r2_v1.2,2013-04-23 01:08:00,
2013-04-22 18:13:00,62.5,55.1,29.93,SSW,198,4.0,13.0,77,0.00,,,0.00,190,HR-IXP-WINDi_r2_v1.2,2013-04-23 01:13:00,
2013-04-22 18:18:00,62.2,55.2,29.93,SW,220,3.0,11.0,78,0.00,,,0.00,169,HR-IXP-WINDi_r2_v1.2,2013-04-23 01:18:00,
2013-04-22 18:24:00,62.1,55.1,29.93,SSW,200,3.0,11.0,78,0.00,,,0.00,95,HR-IXP-WINDi_r2_v1.2,2013-04-23 01:24:00,
2013-04-22 18:29:00,62.0,55.3,29.93,South,187,2.0,9.0,79,0.00,,,0.00,132,HR-IXP-WINDi_r2_v1.2,2013-04-23 01:29:00,
2013-04-22 18:34:00,61.7,55.1,29.93,SW,231,3.0,11.0,79,0.00,,,0.00,114,HR-IXP-WINDi_r2_v1.2,2013-04-23 01:34:00,
2013-04-22 18:39:00,61.4,55.1,29.93,SSW,193,3.0,11.0,80,0.00,,,0.00,98,HR-IXP-WINDi_r2_v1.2,2013-04-23 01:39:00,
2013-04-22 18:44:00,61.3,55.0,29.93,SSW,213,2.0,11.0,80,0.00,,,0.00,83,HR-IXP-WINDi_r2_v1.2,2013-04-23 01:44:00,
2013-04-22 18:50:00,61.3,55.0,29.93,South,175,2.0,8.0,80,0.00,,,0.00,65,HR-IXP-WINDi_r2_v1.2,2013-04-23 01:50:00,
2013-04-22 18:55:00,61.3,55.0,29.93,South,173,3.0,8.0,80,0.00,,,0.00,44,HR-IXP-WINDi_r2_v1.2,2013-04-23 01:55:00,
2013-04-22 19:00:00,60.9,55.0,29.93,SSW,192,7.0,7.0,81,0.00,,,0.00,33,HR-IXP-WINDi_r2_v1.2,2013-04-23 02:00:00,
2013-04-22 19:05:00,60.6,54.7,29.93,SSW,211,1.0,8.0,81,0.00,,,0.00,26,HR-IXP-WINDi_r2_v1.2,2013-04-23 02:05:00,
2013-04-22 19:11:00,60.5,54.6,29.93,SW,217,4.0,8.0,81,0.00,,,0.00,19,HR-IXP-WINDi_r2_v1.2,2013-04-23 02:11:00,
2013-04-22 19:16:00,60.4,54.8,29.93,SSW,213,7.0,7.0,82,0.00,,,0.00,12,HR-IXP-WINDi_r2_v1.2,2013-04-23 02:16:00,
2013-04-22 19:21:00,60.1,54.5,29.93,SSW,213,2.0,8.0,82,0.00,,,0.00,9,HR-IXP-WINDi_r2_v1.2,2013-04-23 02:21:00,
2013-04-22 19:26:00,60.0,54.4,29.93,South,189,1.0,7.0,82,0.00,,,0.00,5,HR-IXP-WINDi_r2_v1.2,2013-04-23 02:26:00,
2013-04-22 19:32:00,59.8,54.6,29.93,SW,220,2.0,7.0,83,0.00,,,0.00,0,HR-IXP-WINDi_r2_v1.2,2013-04-23 02:32:00,
2013-04-22 19:37:00,59.8,54.6,29.93,SSW,211,2.0,8.0,83,0.00,,,0.00,0,HR-IXP-WINDi_r2_v1.2,2013-04-23 02:37:00,
2013-04-22 19:42:00,59.8,54.6,29.93,SW,225,1.0,8.0,83,0.00,,,0.00,0,HR-IXP-WINDi_r2_v1.2,2013-04-23 02:42:00,
2013-04-22 19:47:00,59.8,54.6,29.94,SSE,163,0.0,7.0,83,0.00,,,0.00,0,HR-IXP-WINDi_r2_v1.2,2013-04-23 02:47:00,
2013-04-22 19:52:00,59.8,54.6,29.94,SW,218,3.0,6.0,83,0.00,,,0.00,0,HR-IXP-WINDi_r2_v1.2,2013-04-23 02:52:00,
2013-04-22 19:57:00,59.6,54.4,29.94,SSW,203,1.0,5.0,83,0.00,,,0.00,0,HR-IXP-WINDi_r2_v1.2,2013-04-23 02:57:00,
2013-04-22 20:03:00,59.7,54.5,29.94,SSE,165,3.0,5.0,83,0.00,,,0.00,0,HR-IXP-WINDi_r2_v1.2,2013-04-23 03:03:00,
2013-04-22 20:08:00,59.8,54.6,29.94,SSW,196,0.0,5.0,83,0.00,,,0.00,0,HR-IXP-WINDi_r2_v1.2,2013-04-23 03:08:00,
2013-04-22 20:13:00,59.8,54.6,29.94,SSW,192,1.0,5.0,83,0.00,,,0.00,0,HR-IXP-WINDi_r2_v1.2,2013-04-23 03:13:00,
2013-04-22 20:18:00,59.6,54.4,29.94,South,169,2.0,5.0,83,0.00,,,0.00,0,HR-IXP-WINDi_r2_v1.2,2013-04-23 03:18:00,
2013-04-22 20:23:00,59.6,54.4,29.95,SSE,167,2.0,5.0,83,0.00,,,0.00,0,HR-IXP-WINDi_r2_v1.2,2013-04-23 03:23:00,
2013-04-22 20:28:00,59.4,54.2,29.95,South,173,3.0,6.0,83,0.00,,,0.00,0,HR-IXP-WINDi_r2_v1.2,2013-04-23 03:28:00,
2013-04-22 20:34:00,59.3,54.1,29.95,South,188,2.0,6.0,83,0.00,,,0.00,0,HR-IXP-WINDi_r2_v1.2,2013-04-23 03:34:00,
2013-04-22 20:39:00,59.2,54.0,29.95,SSE,167,2.0,6.0,83,0.00,,,0.00,0,HR-IXP-WINDi_r2_v1.2,2013-04-23 03:39:00,
2013-04-22 20:44:00,59.2,54.0,29.96,SSE,166,3.0,6.0,83,0.00,,,0.00,0,HR-IXP-WINDi_r2_v1.2,2013-04-23 03:44:00,
2013-04-22 20:49:00,59.1,53.9,29.96,SSE,163,3.0,5.0,83,0.00,,,0.00,0,HR-IXP-WINDi_r2_v1.2,2013-04-23 03:49:00,
2013-04-22 20:55:00,59.0,53.8,29.96,SSE,155,1.0,5.0,83,0.00,,,0.00,0,HR-IXP-WINDi_r2_v1.2,2013-04-23 03:55:00,
2013-04-22 21:00:00,59.1,53.9,29.96,SW,216,1.0,5.0,83,0.00,,,0.00,0,HR-IXP-WINDi_r2_v1.2,2013-04-23 04:00:00,
2013-04-22 21:01:00,59.1,53.9,29.96,SW,219,4.0,5.0,83,0.00,,,0.00,0,HR-IXP-WINDi_r2_v1.2,2013-04-23 04:01:00,
2013-04-22 21:06:00,59.2,54.0,29.96,SSW,192,1.0,5.0,83,0.00,,,0.00,0,HR-IXP-WINDi_r2_v1.2,2013-04-23 04:06:00,
2013-04-22 21:11:00,59.1,53.9,29.97,SSE,163,2.0,5.0,83,0.00,,,0.00,0,HR-IXP-WINDi_r2_v1.2,2013-04-23 04:11:00,
2013-04-22 21:16:00,59.1,53.9,29.97,South,173,1.0,5.0,83,0.00,,,0.00,0,HR-IXP-WINDi_r2_v1.2,2013-04-23 04:16:00,
2013-04-22 21:21:00,59.0,53.8,29.97,SSW,192,1.0,5.0,83,0.00,,,0.00,0,HR-IXP-WINDi_r2_v1.2,2013-04-23 04:21:00,
2013-04-22 21:26:00,58.8,53.6,29.97,South,182,2.0,6.0,83,0.00,,,0.00,0,HR-IXP-WINDi_r2_v1.2,2013-04-23 04:26:00,
2013-04-22 21:32:00,58.7,53.5,29.98,SSE,153,2.0,6.0,83,0.00,,,0.00,0,HR-IXP-WINDi_r2_v1.2,2013-04-23 04:32:00,
2013-04-22 21:37:00,58.5,53.3,29.97,SSE,152,1.0,6.0,83,0.00,,,0.00,0,HR-IXP-WINDi_r2_v1.2,2013-04-23 04:37:00,
2013-04-22 21:42:00,58.4,53.2,29.97,SSE,161,3.0,5.0,83,0.00,,,0.00,0,HR-IXP-WINDi_r2_v1.2,2013-04-23 04:42:00,
2013-04-22 21:47:00,58.4,53.2,29.97,SE,146,5.0,5.0,83,0.00,,,0.00,0,HR-IXP-WINDi_r2_v1.2,2013-04-23 04:47:00,
2013-04-22 21:52:00,58.3,53.1,29.97,SSE,148,3.0,5.0,83,0.00,,,0.00,0,HR-IXP-WINDi_r2_v1.2,2013-04-23 04:52:00,
2013-04-22 21:57:00,58.4,53.2,29.97,SSE,159,2.0,5.0,83,0.00,,,0.00,0,HR-IXP-WINDi_r2_v1.2,2013-04-23 04:57:00,
2013-04-22 22:03:00,58.4,53.2,29.97,South,181,3.0,5.0,83,0.00,,,0.00,0,HR-IXP-WINDi_r2_v1.2,2013-04-23 05:03:00,
2013-04-22 22:08:00,58.5,53.3,29.97,SSE,155,2.0,7.0,83,0.00,,,0.00,0,HR-IXP-WINDi_r2_v1.2,2013-04-23 05:08:00,
2013-04-22 22:13:00,58.5,53.3,29.97,SSE,164,1.0,7.0,83,0.00,,,0.00,0,HR-IXP-WINDi_r2_v1.2,2013-04-23 05:13:00,
2013-04-22 22:18:00,58.6,53.1,29.97,SE,130,3.0,6.0,82,0.00,,,0.00,0,HR-IXP-WINDi_r2_v1.2,2013-04-23 05:18:00,
2013-04-22 22:23:00,58.6,53.1,29.97,ESE,121,0.0,6.0,82,0.00,,,0.00,0,HR-IXP-WINDi_r2_v1.2,2013-04-23 05:23:00,
2013-04-22 22:29:00,58.5,53.0,29.97,SSE,147,0.0,4.0,82,0.00,,,0.00,0,HR-IXP-WINDi_r2_v1.2,2013-04-23 05:29:00,
2013-04-22 22:34:00,58.5,53.0,29.97,SSE,147,0.0,3.0,82,0.00,,,0.00,0,HR-IXP-WINDi_r2_v1.2,2013-04-23 05:34:00,
2013-04-22 22:39:00,58.6,53.1,29.96,SSE,151,2.0,5.0,82,0.00,,,0.00,0,HR-IXP-WINDi_r2_v1.2,2013-04-23 05:39:00,
2013-04-22 22:44:00,58.7,53.2,29.97,South,169,0.0,5.0,82,0.00,,,0.00,0,HR-IXP-WINDi_r2_v1.2,2013-04-23 05:44:00,
2013-04-22 22:49:00,58.7,53.2,29.97,SSE,162,4.0,5.0,82,0.00,,,0.00,0,HR-IXP-WINDi_r2_v1.2,2013-04-23 05:49:00,
2013-04-22 22:55:00,58.6,53.1,29.97,SE,137,3.0,6.0,82,0.00,,,0.00,0,HR-IXP-WINDi_r2_v1.2,2013-04-23 05:55:00,
2013-04-22 23:00:00,58.5,53.0,29.97,SSE,150,3.0,6.0,82,0.00,,,0.00,0,HR-IXP-WINDi_r2_v1.2,2013-04-23 06:00:00,
2013-04-22 23:05:00,58.4,52.9,29.97,SE,135,2.0,6.0,82,0.00,,,0.00,0,HR-IXP-WINDi_r2_v1.2,2013-04-23 06:05:00,
2013-04-22 23:10:00,58.4,52.9,29.97,South,174,2.0,6.0,82,0.00,,,0.00,0,HR-IXP-WINDi_r2_v1.2,2013-04-23 06:10:00,
2013-04-22 23:16:00,58.2,52.7,29.97,South,177,0.0,6.0,82,0.00,,,0.00,0,HR-IXP-WINDi_r2_v1.2,2013-04-23 06:16:00,
2013-04-22 23:21:00,58.3,52.8,29.97,SE,144,1.0,4.0,82,0.00,,,0.00,0,HR-IXP-WINDi_r2_v1.2,2013-04-23 06:21:00,
2013-04-22 23:26:00,58.3,52.8,29.97,SE,130,1.0,5.0,82,0.00,,,0.00,0,HR-IXP-WINDi_r2_v1.2,2013-04-23 06:26:00,
2013-04-22 23:31:00,58.3,52.8,29.97,ESE,117,2.0,5.0,82,0.00,,,0.00,0,HR-IXP-WINDi_r2_v1.2,2013-04-23 06:31:00,
2013-04-22 23:36:00,58.3,52.8,29.97,ESE,112,2.0,5.0,82,0.00,,,0.00,0,HR-IXP-WINDi_r2_v1.2,2013-04-23 06:36:00,
2013-04-22 23:42:00,58.2,52.7,29.97,East,99,1.0,5.0,82,0.00,,,0.00,0,HR-IXP-WINDi_r2_v1.2,2013-04-23 06:42:00,
2013-04-22 23:47:00,58.2,52.7,29.97,East,99,1.0,5.0,82,0.00,,,0.00,0,HR-IXP-WINDi_r2_v1.2,2013-04-23 06:47:00,
2013-04-22 23:52:00,58.3,52.8,29.97,East,99,0.0,3.0,82,0.00,,,0.00,0,HR-IXP-WINDi_r2_v1.2,2013-04-23 06:52:00,
2013-04-22 23:57:00,58.4,52.9,29.97,East,99,1.0,3.0,82,0.00,,,0.00,0,HR-IXP-WINDi_r2_v1.2,2013-04-23 06:57:00,